Quillayute, WA

10:00 PM PDT on June 23, 2017 (GMT -0700)
Quillayute

Weather History for KUIL - July, 2013

Change the Weather History Date:

Thursday, July 18, 2013

  Actual Average Record
Temperature  
Mean Temperature 62 °F 59 °F  
Max Temperature 69 °F 68 °F 90 °F (2015)
Min Temperature 55 °F 51 °F 38 °F (1977)
Degree Days  
Heating Degree Days 3 6  
Month to date heating degree days 53 122  
Since 1 June heating degree days 233 416  
Since 1 July heating degree days 53 122  
Cooling Degree Days 0 0  
Month to date cooling degree days 6 0  
Year to date cooling degree days 16 4  
Since 1 June cooling degree days 13 3  
Growing Degree Days 12 (Base 50)    
Moisture  
Dew Point 52 °F    
Average Humidity 71    
Maximum Humidity 87    
Minimum Humidity 55    
Precipitation  
Precipitation 0.00 in 0.06 in 0.49 in (2007)
Month to date precipitation T 1.26  
Year to date precipitation 58.80 53.51  
Sea Level Pressure  
Sea Level Pressure 30.23 in    
Wind  
Wind Speed 4 mph (NW)    
Max Wind Speed 13 mph    
Max Gust Speed 17 mph    
Visibility 8 miles    
Events      
T = Trace of Precipitation, MM = Missing Value Source: NWS Daily Summary

Daily Weather History Graph

Daily Weather History Graph

Search for Another Location

Airport or City:

Trip Planner

Search our weather history database for the weather conditions in past years. The results will help you decide how hot, cold, wet, or windy it might be!

Date:

Astronomy

Jul. 18, 2013 Rise Set
Actual Time 5:38 AM PDT 9:10 PM PDT
Civil Twilight 4:59 AM PDT 9:48 PM PDT
Nautical Twilight 4:07 AM PDT 10:39 PM PDT
Astronomical Twilight 2:57 AM PDT 11:49 PM PDT
Moon 5:11 PM PDT (7/18) 1:37 AM PDT (7/18)
Length of Visible Light 16h 49m
Length of Day
15h 31m
Waxing Gibbous, 78% of the Moon is Illuminated
Jul 18
Waxing Gibbous
Jul 22
Full
Jul 29
Last Quarter
Aug 6
New
Aug 14
First Quarter

Hourly Weather History & Observations

Time (PDT) Temp. Dew Point Humidity Pressure Visibility Wind Dir Wind Speed Gust Speed Precip Events Conditions
12:53 AM 59.0 °F 55.0 °F 87% 30.24 in 7.0 mi Calm Calm - N/A   Overcast
1:53 AM 59.0 °F 54.0 °F 83% 30.24 in 7.0 mi Calm Calm - N/A   Overcast
2:53 AM 60.1 °F 51.1 °F 72% 30.22 in 10.0 mi Calm Calm - N/A   Overcast
3:53 AM 59.0 °F 52.0 °F 78% 30.23 in 10.0 mi Calm Calm - N/A   Overcast
4:53 AM 60.1 °F 50.0 °F 69% 30.22 in 10.0 mi WNW 3.5 mph - N/A   Overcast
5:53 AM 59.0 °F 51.1 °F 75% 30.23 in 10.0 mi Calm Calm - N/A   Overcast
6:53 AM 60.1 °F 51.1 °F 72% 30.24 in 8.0 mi Calm Calm - N/A   Overcast
7:53 AM 61.0 °F 51.1 °F 70% 30.25 in 9.0 mi Calm Calm - N/A   Overcast
8:53 AM 61.0 °F 52.0 °F 72% 30.26 in 8.0 mi West 3.5 mph - N/A   Overcast
9:53 AM 62.1 °F 52.0 °F 70% 30.26 in 8.0 mi SW 3.5 mph - N/A   Overcast
10:53 AM 63.0 °F 52.0 °F 67% 30.25 in 8.0 mi WSW 3.5 mph - N/A   Overcast
11:53 AM 64.0 °F 52.0 °F 65% 30.26 in 8.0 mi West 5.8 mph - N/A   Overcast
12:53 PM 64.9 °F 52.0 °F 63% 30.26 in 8.0 mi NW 5.8 mph - N/A   Overcast
1:53 PM 66.9 °F 52.0 °F 59% 30.25 in 8.0 mi NNW 8.1 mph - N/A   Overcast
2:53 PM 66.9 °F 53.1 °F 61% 30.24 in 8.0 mi NW 9.2 mph - N/A   Overcast
3:50 PM 68.0 °F 53.6 °F 60% 30.23 in 8.0 mi WNW 10.4 mph - N/A   Partly Cloudy
3:53 PM 68.0 °F 52.0 °F 56% 30.23 in 8.0 mi NW 9.2 mph 16.1 mph N/A   Partly Cloudy
4:53 PM 66.9 °F 52.0 °F 59% 30.22 in 8.0 mi Variable 6.9 mph - N/A   Clear
5:53 PM 64.9 °F 52.0 °F 63% 30.22 in 8.0 mi NNW 10.4 mph - N/A   Clear
6:53 PM 64.0 °F 51.1 °F 63% 30.21 in 9.0 mi NNW 9.2 mph - N/A   Clear
7:53 PM 62.1 °F 51.1 °F 67% 30.20 in 8.0 mi NNW 6.9 mph - N/A   Clear
8:53 PM 59.0 °F 51.1 °F 75% 30.20 in 8.0 mi NNW 4.6 mph - N/A   Clear
9:53 PM 55.9 °F 51.1 °F 84% 30.20 in 8.0 mi NNW 3.5 mph - N/A   Clear
10:37 PM 55.4 °F 51.8 °F 88% 30.20 in 8.0 mi Calm Calm - N/A   Scattered Clouds
10:46 PM 55.4 °F 51.8 °F 88% 30.20 in 8.0 mi Calm Calm - N/A   Mostly Cloudy
10:53 PM 57.0 °F 52.0 °F 83% 30.20 in 8.0 mi North 4.6 mph - N/A   Mostly Cloudy
11:53 PM 59.0 °F 53.1 °F 81% 30.20 in 8.0 mi Calm Calm - N/A   Overcast